Location: Newark
(53.7833°N, 9.4833°E)
Time: 08:05:35
(UTC+00:00)

Envisat - Pass Details

Date: 13 December 2019
Orbit: 764 x 766 km, 98.1° (Epoch: 21 January)

Event Time Altitude Azimuth Distance (km) Brightness Sun altitude
Rises 15:47:59 0° 128° (SE) 3,229 6.0 -6.5°
Reaches altitude 10° 15:50:33 10° 117° (ESE) 2,306 5.2 -6.8°
Maximum altitude 15:54:50 28° 59° (ENE) 1,405 3.8 -7.4°
Drops below altitude 10° 15:59:08 10° 2° (N) 2,318 5.2 -7.9°
Sets 16:01:43 0° 351° (N) 3,249 6.1 -8.3°
